Location: Newark
(5.8900°S, 42.6378°W)
Time: 23:37:33
(UTC+00:00)

Transit 2A - All Passes

Search period start: 23 October 2019 00:00
Search period end: 02 November 2019 00:00
Orbit: 600 x 958 km, 66.7° (Epoch: 23 October)

Date Brightness Start Highest point End Pass type
(mag) Time Alt. Az. Time Alt. Az. Time Alt. Az.
23 Oct - 07:32:16 10° N 07:36:23 34° ENE 07:40:51 10° SE visible
23 Oct - 09:17:41 10° W 09:19:29 12° WSW 09:21:21 10° SW daylight
23 Oct - 18:22:06 10° SSE 18:25:37 15° ESE 18:29:02 10° E daylight
23 Oct - 20:02:55 10° SW 20:08:50 46° WNW 20:14:21 10° N daylight
24 Oct - 06:59:07 10° NNE 07:02:24 19° ENE 07:05:53 10° ESE visible
24 Oct - 08:41:46 10° WNW 08:45:16 21° WSW 08:49:02 10° SSW daylight
24 Oct - 19:28:34 10° SSW 19:34:48 75° WNW 19:40:34 10° NNE daylight
25 Oct - 06:27:25 10° ENE 06:28:25 11° ENE 06:29:27 10° E visible
25 Oct - 08:06:52 10° NW 08:11:06 36° WSW 08:15:44 10° S visible
25 Oct - 18:54:29 10° SSW 19:00:43 69° ESE 19:06:29 10° NNE daylight
26 Oct - 07:32:25 10° NNW 07:36:58 64° WSW 07:42:00 10° SSE visible
26 Oct - 18:20:43 10° S 18:26:36 43° ESE 18:32:05 10° NE daylight
26 Oct - 20:05:53 10° WSW 20:09:25 16° WNW 20:12:47 10° NW daylight
27 Oct - 06:58:20 10° NNW 07:02:54 71° ENE 07:07:56 10° SSE visible
27 Oct - 17:47:16 10° S 17:52:26 27° ESE 17:57:19 10° ENE daylight
27 Oct - 19:30:26 10° SW 19:35:25 26° WNW 19:40:06 10° NNW daylight
28 Oct - 06:24:36 10° N 06:28:52 39° ENE 06:33:33 10° SE visible
28 Oct - 08:10:56 10° WSW 08:12:03 11° WSW 08:13:12 10° SW daylight
28 Oct - 17:14:21 10° SSE 17:18:13 17° ESE 17:21:57 10° ENE daylight
28 Oct - 18:55:38 10° SW 19:01:24 42° WNW 19:06:46 10° N daylight
29 Oct - 05:51:19 10° NNE 05:54:54 22° ENE 05:58:43 10° ESE visible
29 Oct - 07:34:29 10° WNW 07:37:50 19° WSW 07:41:23 10° SSW visible
29 Oct - 18:21:13 10° SSW 18:27:23 68° WNW 18:33:03 10° N daylight
30 Oct - 05:18:58 10° NE 05:20:55 12° ENE 05:22:57 10° E visible
30 Oct - 06:59:27 10° NW 07:03:38 32° WSW 07:08:11 10° S visible
30 Oct - 17:47:05 10° SSW 17:53:18 76° ESE 17:59:02 10° NNE daylight
31 Oct - 06:24:56 10° NNW 06:29:29 57° WSW 06:34:32 10° S visible
31 Oct - 17:13:14 10° S 17:19:11 47° ESE 17:24:42 10° NE daylight
31 Oct - 18:59:01 10° WSW 19:01:56 14° WNW 19:04:47 10° NW daylight
01 Nov - 05:50:47 10° NNW 05:55:24 81° ENE 06:00:33 10° SSE visible
01 Nov - 16:39:42 10° S 16:45:01 30° ESE 16:50:01 10° NE daylight
01 Nov - 18:23:17 10° WSW 18:27:58 23° WNW 18:32:22 10° NNW daylight
